Location: Coffee Ditch
(40.9640°N, 122.7500°W)
Time: 07:06:15
(UTC+00:00)

CZ-4C R/B - Pass Details

Date: 08 September 2024
Orbit: 520 x 1471 km, 63.4° (Epoch: 05 October)

Event Time Altitude Azimuth Distance (km) Brightness Sun altitude
Exits shadow 12:42:50 - 295° (WNW) 2,330 4.1 -12.3°
Reaches altitude 10° 12:43:34 10° 303° (WNW) 2,206 4.0 -12.2°
Maximum altitude 12:46:14 14° 335° (NNW) 2,072 4.2 -11.7°
Drops below altitude 10° 12:49:11 10° 6° (N) 2,515 5.0 -11.2°
Sets 12:53:23 0° 30° (NNE) 3,699 6.3 -10.4°
